[[{"header":{"parameterUnit":"m.s-1","parameterCategory":1,"la1":30.2991,"la2":30.254,"lo1":-89.0895,"lo2":-89.0444,"dy":0.0017,"dx":0.0017,"nx":28,"ny":28,"refTime":"2024-08-03T09:00:00:Z","depth":0,"parameterNumber":2,"parameterNumberName":"U-component_of_WINDS"},"data":[0,0,0,0,0,0,0,0,0,0,0,0,0,0,0,0,0,0,0,0,0,0,0,0,0,0,0,0,0,0,0,0,0,0,0,0,0,0,0,0,0,0,0,0,0,0,0,0,0,0,0,0,0,0,0,0,0,0,-0.3316,-0.3315,0,-0.3267,-0.3267,-0.3266,-0.3214,-0.3214,-0.3213,-0.3212,-0.3163,-0.3162,-0.3162,0,0,0,0,0,0,0,0,0,0,0,0,0,-0.3363,-0.3363,-0.3316,-0.3315,-0.3314,-0.3267,-0.3267,-0.3266,-0.3215,-0.3214,-0.3213,-0.3212,-0.3163,-0.3163,-0.3162,0,0,0,0,0,0,0,0,0,0,0,0,0,-0.3332,-0.3363,-0.3316,-0.3283,-0.328,-0.3268,-0.3267,-0.3266,-0.3215,-0.3214,-0.3213,-0.3212,-0.3164,-0.3163,-0.3162,-0.3178,0,0,-0.3159,-0.3158,0,0,0,0,0,0,0,0,-0.3333,-0.333,-0.3288,-0.3285,-0.3281,-0.3246,-0.3265,-0.3236,-0.3215,-0.3239,-0.3212,-0.3211,-0.3191,-0.3188,-0.3182,-0.3176,-0.3173,-0.3159,-0.3158,-0.3158,-0.3157,0,0,0,0,0,0,0,-0.3336,-0.3332,-0.3296,-0.3288,-0.3284,-0.3271,-0.3265,-0.326,-0.3222,-0.3237,-0.3233,-0.3228,-0.3189,-0.3183,-0.318,-0.3173,-0.3159,-0.3158,-0.3157,-0.3157,-0.3177,-0.3178,0,0,0,0,0,0,-0.3343,-0.3334,-0.3298,-0.3295,-0.3305,-0.3271,-0.3264,-0.3258,-0.3222,-0.3216,-0.3229,-0.3226,-0.3185,-0.3181,-0.3178,-0.3195,-0.3158,-0.3157,-0.3156,-0.3176,-0.3177,-0.3179,0,0,0,0,0,0,-0.3344,-0.334,-0.33,-0.3313,-0.3307,-0.3271,-0.3265,-0.3258,-0.3251,-0.3216,-0.3209,-0.3229,-0.3184,-0.3179,-0.3178,-0.3192,-0.3156,-0.3156,-0.3175,-0.3177,-0.3178,-0.3228,0,0,0,0,0,0,-0.3346,-0.3341,-0.3347,-0.3314,-0.3307,-0.3301,-0.3266,-0.3258,-0.325,-0.3245,-0.3214,-0.3208,-0.3183,-0.318,-0.3177,-0.319,-0.3155,-0.3173,-0.3176,-0.3178,-0.3225,-0.3231,-0.3237,0,0,0,0,0,-0.3348,-0.3363,-0.3347,-0.3343,-0.3313,-0.3302,-0.3298,-0.3268,-0.3251,-0.3257,-0.3234,-0.3209,-0.3191,-0.318,-0.3177,-0.319,-0.3172,-0.3175,-0.3177,-0.3223,-0.323,-0.3237,0,0,0,0,0,0,-0.3399,-0.3358,-0.334,-0.3346,-0.3328,-0.3293,-0.33,-0.3277,-0.3264,-0.326,-0.3224,-0.3217,-0.322,-0.3205,-0.3193,-0.3203,-0.3178,-0.318,-0.3214,-0.3221,-0.3226,-0.323,-0.3154,0,0,0,0,0,-0.3411,-0.3405,-0.337,-0.3378,-0.3369,-0.3336,-0.333,-0.3309,-0.3289,-0.3281,-0.3258,-0.324,-0.323,-0.3224,-0.3213,-0.3222,-0.3215,-0.3229,-0.3235,-0.324,-0.3242,-0.3246,-0.3252,-0.3187,-0.3187,-0.3187,0,0,-0.3435,-0.3412,-0.3411,-0.3387,-0.3371,-0.3366,-0.333,-0.3326,-0.3322,-0.328,-0.3278,-0.3261,-0.3238,-0.3242,-0.3242,-0.3229,-0.3259,-0.3243,-0.3247,-0.3247,-0.3249,-0.3255,-0.3261,-0.3188,-0.3188,-0.3188,0,0,-0.3478,-0.3459,-0.3464,-0.3448,-0.3424,-0.3401,-0.3403,-0.3372,-0.3358,-0.3355,-0.3324,-0.3318,-0.3302,-0.3287,-0.3277,-0.3313,-0.3289,-0.331,-0.334,-0.3344,-0.3349,-0.3354,-0.3367,-0.3372,-0.3312,-0.3312,-0.3312,0,-0.3511,-0.3502,-0.3469,-0.3467,-0.3458,-0.3419,-0.3424,-0.341,-0.3383,-0.3378,-0.3363,-0.3341,-0.3323,-0.3323,-0.3332,-0.3325,-0.3325,-0.3314,-0.3351,-0.3355,-0.3359,-0.3371,-0.3376,-0.3315,-0.3315,-0.3314,-0.3314,0,-0.3545,-0.3539,-0.3546,-0.3521,-0.3512,-0.3514,-0.3481,-0.3476,-0.3455,-0.3434,-0.3431,-0.3408,-0.3391,-0.3389,-0.3369,-0.3386,-0.3379,-0.3358,-0.3332,-0.3368,-0.3379,-0.3383,-0.3319,-0.3318,-0.3317,-0.3316,0,0,-0.3619,-0.3576,-0.3579,-0.3567,-0.3536,-0.3531,-0.3531,-0.3514,-0.3511,-0.3493,-0.3492,-0.3479,-0.3459,-0.3448,-0.3425,-0.3429,-0.3459,-0.3407,-0.3406,-0.3418,-0.3477,-0.3493,-0.3499,-0.3443,-0.3443,-0.3444,-0.3479,0,-0.3657,-0.3653,-0.3623,-0.3629,-0.3623,-0.3586,-0.3585,-0.3566,-0.3547,-0.3539,-0.3517,-0.3508,-0.3483,-0.3476,-0.3478,-0.3455,-0.347,-0.3452,-0.3441,-0.3441,-0.3449,-0.3504,-0.3521,-0.3555,-0.3483,-0.3483,-0.3484,0,-0.37,-0.3685,-0.369,-0.3659,-0.3656,-0.3656,-0.3638,-0.3631,-0.3609,-0.3594,-0.3582,-0.3556,-0.3553,-0.3528,-0.3523,-0.3511,-0.3505,-0.3493,-0.3494,-0.3492,-0.3465,-0.3505,-0.3565,-0.3571,-0.349,-0.3489,-0.3489,0,-0.3754,-0.3735,-0.3736,-0.3726,-0.3691,-0.3692,-0.3677,-0.3653,-0.3645,-0.363,-0.3624,-0.3608,-0.36,-0.3588,-0.3559,-0.3544,-0.3558,-0.353,-0.3545,-0.3546,-0.3551,-0.3551,-0.3612,-0.3546,-0.3546,-0.3546,-0.3546,0,-0.38,-0.3804,-0.3759,-0.376,-0.3763,-0.3729,-0.3733,-0.3715,-0.3694,-0.369,-0.3657,-0.3654,-0.3615,-0.3607,-0.3584,-0.3583,-0.358,-0.3568,-0.3562,-0.3571,-0.3573,-0.3567,-0.3564,-0.3547,-0.3547,-0.3547,-0.3546,0,-0.3862,-0.3832,-0.383,-0.3795,-0.3787,-0.3791,-0.3762,-0.3761,-0.3739,-0.3734,-0.3731,-0.3696,-0.3685,-0.3654,-0.3636,-0.362,-0.3626,-0.3615,-0.3634,-0.363,-0.3648,-0.3647,-0.3707,-0.3714,-0.3644,-0.3644,-0.3645,0,-0.3893,-0.3895,-0.3861,-0.3856,-0.3843,-0.3835,-0.3826,-0.3792,-0.3784,-0.3759,-0.3761,-0.3747,-0.3735,-0.3719,-0.3692,-0.3677,-0.3665,-0.3687,-0.3663,-0.3672,-0.3666,-0.3666,-0.3666,-0.3693,-0.3694,-0.3695,-0.3695,0,-0.3952,-0.3937,-0.3926,-0.3909,-0.39,-0.3886,-0.3869,-0.3867,-0.3828,-0.3822,-0.381,-0.38,-0.3781,-0.3768,-0.3749,-0.3733,-0.3708,-0.3703,-0.3706,-0.3716,-0.3728,-0.3722,-0.3649,-0.3702,-0.3702,-0.3701,-0.3701,-0.37,-0.3999,-0.4,-0.3976,-0.3965,-0.3949,-0.3934,-0.3931,-0.3908,-0.3898,-0.388,-0.386,-0.3851,-0.3828,-0.3799,-0.3785,-0.3777,-0.3764,-0.3768,-0.3769,-0.3771,-0.3775,-0.3728,-0.3774,-0.3773,-0.3773,-0.3773,-0.3773,0,-0.4057,-0.404,-0.4029,-0.4008,-0.3999,-0.3975,-0.3956,-0.395,-0.3942,-0.3923,-0.3911,-0.3897,-0.3884,-0.3856,-0.384,-0.3839,-0.3827,-0.3836,-0.3837,-0.3833,-0.3788,-0.3787,-0.3846,-0.3846,-0.3846,-0.3846,-0.3846,-0.3846,-0.4086,-0.4085,-0.4067,-0.4058,-0.4041,-0.4031,-0.4022,-0.4008,-0.3993,-0.3979,-0.3968,-0.395,-0.3927,-0.3909,-0.3896,-0.3888,-0.3884,-0.3897,-0.3885,-0.3843,-0.3837,-0.383,-0.3829,-0.3896,-0.3896,-0.3931,-0.3931,-0.3931]},{"header":{"parameterUnit":"m.s-1","parameterCategory":1,"la1":30.2991,"la2":30.254,"lo1":-89.0895,"lo2":-89.0444,"dy":0.0017,"dx":0.0017,"nx":28,"ny":28,"refTime":"2024-08-03T09:00:00:Z","depth":0,"parameterNumber":3,"parameterNumberName":"V-component_of_WINDS"},"data":[0,0,0,0,0,0,0,0,0,0,0,0,0,0,0,0,0,0,0,0,0,0,0,0,0,0,0,0,0,0,0,0,0,0,0,0,0,0,0,0,0,0,0,0,0,0,0,0,0,0,0,0,0,0,0,0,0,0,1.1351,1.1349,0,1.1206,1.1204,1.1202,1.1123,1.1123,1.1123,1.1123,1.0972,1.0968,1.0965,0,0,0,0,0,0,0,0,0,0,0,0,0,1.1559,1.1556,1.1351,1.1349,1.1347,1.1206,1.1204,1.1202,1.1123,1.1123,1.1123,1.1123,1.0973,1.0969,1.0964,0,0,0,0,0,0,0,0,0,0,0,0,0,1.1447,1.1555,1.1351,1.1291,1.1284,1.1206,1.1204,1.1201,1.1123,1.1123,1.1123,1.1122,1.0975,1.0969,1.0964,1.0934,0,0,1.0946,1.0943,0,0,0,0,0,0,0,0,1.1454,1.1439,1.1302,1.1295,1.1287,1.1182,1.1222,1.1112,1.1123,1.1184,1.1123,1.1122,1.1042,1.1031,1.1004,1.0927,1.092,1.0945,1.0942,1.094,1.0938,0,0,0,0,0,0,0,1.1461,1.1445,1.1293,1.13,1.1291,1.1271,1.1255,1.1201,1.1116,1.1179,1.1173,1.1157,1.1038,1.101,1.1,1.0918,1.0946,1.0941,1.0937,1.0935,1.0811,1.0811,0,0,0,0,0,0,1.1479,1.1452,1.1298,1.1289,1.1371,1.1268,1.1249,1.1216,1.1117,1.1102,1.1157,1.1154,1.102,1.1007,1.0994,1.0954,1.094,1.0934,1.0931,1.0811,1.0811,1.0811,0,0,0,0,0,0,1.1484,1.1466,1.1304,1.1369,1.1347,1.1264,1.1228,1.1214,1.1185,1.1101,1.1085,1.1144,1.1019,1.1002,1.095,1.0948,1.0932,1.0926,1.081,1.0811,1.0811,1.0873,0,0,0,0,0,0,1.149,1.1468,1.1456,1.1369,1.1344,1.1262,1.1228,1.1211,1.1176,1.117,1.1084,1.1069,1.1018,1.0959,1.0944,1.094,1.0922,1.081,1.0811,1.0811,1.0871,1.0876,1.088,0,0,0,0,0,1.1498,1.1479,1.1456,1.1438,1.1327,1.1262,1.1247,1.1189,1.1176,1.1163,1.1109,1.1072,1.0951,1.0954,1.0937,1.0931,1.081,1.081,1.0811,1.0869,1.0875,1.088,0,0,0,0,0,0,1.1566,1.1466,1.144,1.1392,1.1336,1.1249,1.1231,1.1196,1.1143,1.1139,1.1068,1.1049,1.1004,1.0962,1.0968,1.0898,1.0877,1.0873,1.0927,1.0931,1.0936,1.0947,1.0917,0,0,0,0,0,1.1576,1.1532,1.1447,1.1413,1.1387,1.1314,1.1283,1.1243,1.1182,1.1158,1.11,1.1042,1.0991,1.0959,1.0907,1.0865,1.0846,1.0852,1.0856,1.086,1.0858,1.0835,1.0837,1.0812,1.0812,1.0812,0,0,1.1595,1.1535,1.1511,1.1425,1.1377,1.1334,1.1294,1.1249,1.1217,1.1151,1.1099,1.1054,1.0985,1.0938,1.0914,1.0902,1.0861,1.0861,1.0864,1.086,1.0835,1.0838,1.084,1.0812,1.0812,1.0812,0,0,1.1608,1.1558,1.1525,1.1478,1.1407,1.1359,1.1352,1.1269,1.1238,1.1184,1.1135,1.1095,1.1007,1.0961,1.0926,1.0923,1.0888,1.0908,1.0931,1.0908,1.091,1.0912,1.0912,1.0913,1.0907,1.0907,1.0907,0,1.1641,1.1573,1.1512,1.1471,1.1435,1.1375,1.1341,1.1299,1.1214,1.119,1.1177,1.1068,1.1017,1.0959,1.0959,1.0932,1.0922,1.0918,1.0915,1.0916,1.0916,1.0916,1.0916,1.091,1.0909,1.0909,1.0909,0,1.1618,1.1572,1.1554,1.1475,1.1437,1.14,1.1333,1.1302,1.1265,1.1219,1.1166,1.1103,1.1038,1.1021,1.0984,1.0959,1.0953,1.0929,1.0906,1.0923,1.0921,1.0921,1.0914,1.0913,1.0912,1.0911,0,0,1.1669,1.1558,1.1552,1.1517,1.1435,1.1398,1.1358,1.1296,1.1271,1.1215,1.1181,1.1109,1.1087,1.1047,1.1005,1.0985,1.0989,1.0962,1.096,1.0971,1.0959,1.0979,1.0979,1.0965,1.0965,1.0965,1.0965,0,1.1671,1.1598,1.1542,1.149,1.1448,1.1391,1.1357,1.1303,1.1259,1.1217,1.1168,1.1119,1.1092,1.1068,1.1046,1.0994,1.0986,1.0992,1.0933,1.0932,1.0953,1.0978,1.0999,1.1002,1.0964,1.0964,1.0964,0,1.1663,1.1611,1.1555,1.1479,1.1459,1.1429,1.1369,1.1329,1.1267,1.1236,1.1193,1.115,1.1106,1.1088,1.1027,1.1033,1.1006,1.0976,1.0975,1.0968,1.0949,1.0973,1.1001,1.1003,1.0962,1.0962,1.0962,0,1.1707,1.1623,1.1579,1.155,1.146,1.144,1.1402,1.134,1.1307,1.1253,1.1231,1.1174,1.1142,1.1099,1.1041,1.1033,1.0987,1.0964,1.0961,1.0963,1.0954,1.0956,1.098,1.0935,1.0935,1.0935,1.0935,0,1.1716,1.1684,1.1598,1.1571,1.1535,1.1471,1.1437,1.1393,1.1339,1.1303,1.125,1.1217,1.1143,1.1101,1.1056,1.1014,1.0999,1.0974,1.0963,1.0979,1.0983,1.0961,1.096,1.0935,1.0935,1.0935,1.0935,0,1.1759,1.17,1.1649,1.1568,1.1548,1.1524,1.1455,1.1427,1.1381,1.1337,1.1322,1.125,1.1199,1.1137,1.1065,1.1035,1.0997,1.0979,1.1019,1.1012,1.1014,1.1015,1.1026,1.1024,1.098,1.0981,1.0981,0,1.1769,1.1743,1.1661,1.1634,1.1597,1.1553,1.152,1.1457,1.1424,1.1353,1.1334,1.1279,1.1231,1.1152,1.1093,1.1038,1.1019,1.1027,1.1011,1.1029,1.1021,1.1024,1.1022,1.1031,1.1032,1.1033,1.1033,0,1.1793,1.1765,1.1719,1.1663,1.1625,1.1578,1.1528,1.1509,1.1436,1.1402,1.1349,1.1313,1.1241,1.1187,1.1125,1.1085,1.1048,1.1039,1.1036,1.1053,1.1078,1.1066,1.1032,1.1039,1.1039,1.1038,1.1038,1.1038,1.182,1.1795,1.1735,1.1685,1.1642,1.1598,1.1568,1.1519,1.1474,1.1412,1.1377,1.1326,1.1266,1.118,1.1142,1.1101,1.1087,1.1082,1.1081,1.1081,1.1087,1.1084,1.1089,1.1089,1.1089,1.1088,1.1088,0,1.1842,1.1801,1.1756,1.169,1.1651,1.162,1.1564,1.1534,1.149,1.1438,1.1393,1.1334,1.1282,1.122,1.1164,1.1144,1.1125,1.1132,1.1133,1.1125,1.1101,1.1111,1.1148,1.1148,1.1148,1.1148,1.1148,1.1148,1.1849,1.1807,1.1773,1.1709,1.1667,1.1618,1.1589,1.1548,1.1506,1.1443,1.14,1.136,1.1304,1.1245,1.1196,1.1179,1.1162,1.1173,1.1152,1.1131,1.1126,1.1121,1.1129,1.117,1.117,1.1178,1.1178,1.1178]}]]